ATLAS 5 CENTAUR DEB, 44009

Orbit data source: Space-Track

ATLAS 5 CENTAUR DEB, 44009 is space debris in HEO originally from a launch on Wed, 17 Sep 2014 UTC launched from the Air Force Eastern Test Range (AFETR). Debris objects in space refer to the collection of defunct objects orbiting the Earth. Examples of debris include non-operational satellites, rocket bodies, and fragments generated from explosions, collisions, or faulty payload assembly.

Loading next visibility...
Identifier
44009, 2014-055BQ
Orbit
HEO
Country
Flag of USUS
Related business
Flag of USUnited Launch Alliance/Lockheed Martin (US)
Manufacturer
Unknown
Mission
Spacecraft
Bus & Motor
Unknown
Mass
Unknown
Launch date (UTC)
2014-09-17 (12 years ago)
Launch vehicle
Unknown
Launch site
Air Force Eastern Test Range (AFETR)
Object type
Payload
Rocket body
Debris
Shape & HBR
Unknown shape, 1.1 m
Radar Cross Section
Medium (>0.1 m² and <1 m²)

Expand to show TLE details & history
Last TLE update: 3 days ago

TLE from 3 days ago
0 ATLAS 5 CENTAUR DEB
1 44009U 14055BQ  26170.83819015 -.00000063  00000-0  00000+0 0  9992
2 44009  20.9001 107.4384 4979135 233.5453  69.6012  1.91636749 54000
Epoch: 2026-06-19T20:06Z
TLE epoch observation values (Epoch: 2026-06-19T20:06:59.628Z)
Latitude
0.00002°
Longitude
-102.42456°
Altitude
22,887.406 km
Speed
3.561 km/s
True Right ascension
07h 09m 32s
True Declination
0° 00' 00"
Sunlit
Object was in daylight at epoch
Visualization orbit readout
Latitude
Unknown
Longitude
Unknown
Altitude
Unknown
Speed
Unknown
Apparent Right ascension
Unknown
Apparent Declination
Unknown
Sunlit
N/A
Visualization observer readout
Local Sidereal Time
21:35:04
Azimuth
Unknown
Elevation
Unknown
Doppler factor
Unknown
Orbital elements
Apogee altitude
34,636.1 km
Perigee altitude
7,369.449 km
Semi-major axis
27,380.911 km
Eccentricity
0.49791
Inclination
20.9001°
RAAN
107.4384°
Arg. of periapsis
233.5453°
True anomaly
126.45723°
Mean anomaly
69.6012°
Eccentric anomaly
97.86143°
Mean motion
0.47904 °/min
Orbital period
751.5 mins
BSTAR
0
Loading maneuver chart data...
Computing Atmospheric mass density...

Documentation

Showing up to 5 results
|